• en Belgique
  • Liste des pays
  • À 7 jours
  • Température de l'eau
  • Carte satellitaire
  • Carte météo
  • Widgets météo
  • user-avatar
    Se connecter

    Météo par heure à Korçё

    Ce jour, 19 Août, Samedi

    Heure Température Précipitation Vent Pression Humidité
    00:00 +19°C° 0 mm 1 m/s 669 mmHg 50%
    01:00 +18°C° 0 mm 2 m/s 669 mmHg 49%
    02:00 +19°C° 0 mm 1 m/s 669 mmHg 50%
    03:00 +18°C° 0 mm 1 m/s 668 mmHg 51%
    04:00 +18°C° 0 mm 1 m/s 668 mmHg 53%
    05:00 +20°C° 0 mm 1 m/s 669 mmHg 50%
    06:00 +21°C° 0 mm 1 m/s 670 mmHg 47%
    07:00 +24°C° 0 mm 1 m/s 670 mmHg 42%
    08:00 +25°C° 0 mm 1 m/s 670 mmHg 38%
    09:00 +27°C° 0 mm 1 m/s 671 mmHg 34%
    10:00 +29°C° 0 mm 1 m/s 671 mmHg 29%
    11:00 +29°C° 0 mm 1 m/s 671 mmHg 29%
    12:00 +29°C° 0 mm 2 m/s 671 mmHg 29%
    13:00 +29°C° 0 mm 2 m/s 671 mmHg 29%
    14:00 +29°C° 0 mm 2 m/s 670 mmHg 31%
    15:00 +28°C° 0 mm 2 m/s 670 mmHg 33%
    16:00 +27°C° 0 mm 2 m/s 670 mmHg 35%
    17:00 +26°C° 0 mm 2 m/s 669 mmHg 39%
    18:00 +24°C° 0 mm 1 m/s 669 mmHg 43%
    19:00 +22°C° 0 mm 1 m/s 669 mmHg 46%
    20:00 +21°C° 0 mm 1 m/s 669 mmHg 48%
    21:00 +20°C° 0 mm 1 m/s 669 mmHg 51%
    22:00 +20°C° 0 mm 1 m/s 669 mmHg 53%
    23:00 +19°C° 0 mm 1 m/s 668 mmHg 54%

    Demain, 20 Août, Dimanche

    Heure Température Précipitation Vent Pression Humidité
    00:00 +19°C° 0 mm 1 m/s 668 mmHg 54%
    01:00 +19°C° 0 mm 1 m/s 668 mmHg 55%
    02:00 +18°C° 0 mm 1 m/s 668 mmHg 55%
    03:00 +18°C° 0 mm 1 m/s 667 mmHg 56%
    04:00 +18°C° 0 mm 1 m/s 667 mmHg 56%
    05:00 +20°C° 0 mm 1 m/s 668 mmHg 52%
    06:00 +21°C° 0 mm 1 m/s 668 mmHg 48%
    07:00 +23°C° 0 mm 1 m/s 668 mmHg 43%
    08:00 +25°C° 0 mm 1 m/s 669 mmHg 38%
    09:00 +27°C° 0 mm 1 m/s 669 mmHg 32%
    10:00 +29°C° 0 mm 1 m/s 670 mmHg 26%
    11:00 +29°C° 0 mm 2 m/s 669 mmHg 26%
    12:00 +30°C° 0 mm 2 m/s 669 mmHg 25%
    13:00 +30°C° 0 mm 3 m/s 669 mmHg 25%
    14:00 +29°C° 0 mm 3 m/s 668 mmHg 27%
    15:00 +28°C° 0 mm 3 m/s 668 mmHg 29%
    16:00 +28°C° 0 mm 3 m/s 667 mmHg 30%
    17:00 +25°C° 0 mm 2 m/s 667 mmHg 36%
    18:00 +23°C° 0 mm 2 m/s 666 mmHg 41%
    19:00 +21°C° 0 mm 1 m/s 666 mmHg 46%
    20:00 +20°C° 0 mm 1 m/s 666 mmHg 48%
    21:00 +19°C° 0 mm 1 m/s 666 mmHg 50%
    22:00 +19°C° 0 mm 1 m/s 666 mmHg 52%
    23:00 +18°C° 0 mm 1 m/s 666 mmHg 53%

    Après-demain, 21 Août, Lundi

    Heure Température Précipitation Vent Pression Humidité
    00:00 +18°C° 0 mm 1 m/s 666 mmHg 54%
    01:00 +16°C° 0 mm 1 m/s 665 mmHg 55%
    02:00 +16°C° 0,1 mm 1 m/s 665 mmHg 57%
    03:00 +16°C° 0,1 mm 1 m/s 665 mmHg 59%
    04:00 +15°C° 0,1 mm 2 m/s 665 mmHg 62%
    05:00 +16°C° 0,2 mm 2 m/s 665 mmHg 63%
    06:00 +17°C° 0,2 mm 2 m/s 666 mmHg 64%
    07:00 +18°C° 0,2 mm 2 m/s 666 mmHg 65%
    08:00 +20°C° 0 mm 2 m/s 667 mmHg 58%
    09:00 +23°C° 0 mm 2 m/s 667 mmHg 50%
    10:00 +25°C° 0 mm 2 m/s 668 mmHg 43%
    11:00 +26°C° 0,1 mm 2 m/s 668 mmHg 41%
    12:00 +27°C° 0,1 mm 2 m/s 667 mmHg 39%
    13:00 +27°C° 0,1 mm 3 m/s 667 mmHg 37%
    14:00 +26°C° 0,2 mm 3 m/s 667 mmHg 40%
    15:00 +25°C° 0,2 mm 3 m/s 667 mmHg 43%
    16:00 +25°C° 0,2 mm 3 m/s 666 mmHg 46%
    17:00 +22°C° 0,1 mm 3 m/s 666 mmHg 51%
    18:00 +20°C° 0,1 mm 2 m/s 666 mmHg 56%
    19:00 +19°C° 0,1 mm 2 m/s 666 mmHg 60%
    20:00 +18°C° 0 mm 2 m/s 666 mmHg 64%
    21:00 +17°C° 0 mm 2 m/s 666 mmHg 67%
    22:00 +16°C° 0 mm 2 m/s 666 mmHg 70%
    23:00 +15°C° 0 mm 2 m/s 666 mmHg 70%

    22 Août, Mardi

    Heure Température Précipitation Vent Pression Humidité
    00:00 +14°C° 0 mm 2 m/s 666 mmHg 71%
    01:00 +14°C° 0 mm 2 m/s 666 mmHg 71%
    02:00 +13°C° 0 mm 2 m/s 666 mmHg 71%
    03:00 +13°C° 0 mm 2 m/s 666 mmHg 71%
    04:00 +13°C° 0 mm 2 m/s 666 mmHg 70%
    05:00 +14°C° 0 mm 2 m/s 666 mmHg 64%
    06:00 +15°C° 0 mm 2 m/s 667 mmHg 58%
    07:00 +17°C° 0 mm 2 m/s 668 mmHg 52%
    08:00 +19°C° 0 mm 2 m/s 668 mmHg 46%
    09:00 +20°C° 0 mm 2 m/s 669 mmHg 40%
    10:00 +23°C° 0 mm 2 m/s 669 mmHg 34%
    11:00 +24°C° 0 mm 2 m/s 669 mmHg 32%
    12:00 +25°C° 0 mm 2 m/s 669 mmHg 29%
    13:00 +26°C° 0 mm 2 m/s 669 mmHg 26%
    14:00 +26°C° 0 mm 2 m/s 669 mmHg 26%
    15:00 +26°C° 0 mm 3 m/s 669 mmHg 26%
    16:00 +26°C° 0 mm 3 m/s 669 mmHg 26%
    17:00 +22°C° 0 mm 3 m/s 668 mmHg 31%
    18:00 +20°C° 0 mm 2 m/s 668 mmHg 37%
    19:00 +17°C° 0 mm 2 m/s 667 mmHg 42%
    20:00 +16°C° 0 mm 2 m/s 667 mmHg 43%
    21:00 +16°C° 0 mm 2 m/s 667 mmHg 43%
    22:00 +15°C° 0 mm 2 m/s 668 mmHg 44%
    23:00 +14°C° 0 mm 2 m/s 668 mmHg 43%

    23 Août, Mercredi

    Heure Température Précipitation Vent Pression Humidité
    00:00 +14°C° 0 mm 2 m/s 667 mmHg 42%
    01:00 +14°C° 0 mm 2 m/s 667 mmHg 40%
    02:00 +13°C° 0 mm 2 m/s 667 mmHg 40%
    03:00 +13°C° 0 mm 2 m/s 667 mmHg 41%
    04:00 +13°C° 0 mm 2 m/s 667 mmHg 41%
    05:00 +14°C° 0 mm 2 m/s 668 mmHg 39%
    06:00 +16°C° 0 mm 2 m/s 669 mmHg 37%
    07:00 +19°C° 0 mm 1 m/s 669 mmHg 35%
    08:00 +21°C° 0 mm 1 m/s 670 mmHg 32%
    09:00 +24°C° 0 mm 1 m/s 671 mmHg 30%
    10:00 +26°C° 0 mm 1 m/s 671 mmHg 27%
    11:00 +27°C° 0 mm 1 m/s 671 mmHg 26%
    12:00 +27°C° 0 mm 2 m/s 671 mmHg 26%
    13:00 +28°C° 0 mm 2 m/s 671 mmHg 25%
    14:00 +28°C° 0 mm 3 m/s 671 mmHg 27%
    15:00 +27°C° 0 mm 3 m/s 671 mmHg 29%
    16:00 +27°C° 0 mm 3 m/s 671 mmHg 30%
    17:00 +24°C° 0 mm 3 m/s 670 mmHg 36%
    18:00 +21°C° 0 mm 2 m/s 670 mmHg 42%
    19:00 +19°C° 0 mm 1 m/s 669 mmHg 48%
    20:00 +18°C° 0 mm 1 m/s 669 mmHg 49%
    21:00 +18°C° 0 mm 1 m/s 669 mmHg 50%
    22:00 +16°C° 0 mm 1 m/s 669 mmHg 52%
    23:00 +16°C° 0 mm 1 m/s 669 mmHg 51%

    24 Août, Jeudi

    Heure Température Précipitation Vent Pression Humidité
    00:00 +15°C° 0 mm 1 m/s 669 mmHg 51%
    01:00 +15°C° 0 mm 1 m/s 669 mmHg 51%
    02:00 +15°C° 0 mm 1 m/s 669 mmHg 51%
    03:00 +15°C° 0 mm 1 m/s 669 mmHg 51%
    04:00 +14°C° 0 mm 1 m/s 669 mmHg 51%
    05:00 +16°C° 0 mm 1 m/s 670 mmHg 47%
    06:00 +19°C° 0 mm 1 m/s 670 mmHg 44%
    07:00 +21°C° 0 mm 1 m/s 671 mmHg 40%
    08:00 +23°C° 0 mm 1 m/s 672 mmHg 35%
    09:00 +25°C° 0 mm 1 m/s 672 mmHg 30%
    10:00 +27°C° 0 mm 2 m/s 673 mmHg 25%
    11:00 +28°C° 0 mm 2 m/s 673 mmHg 23%
    12:00 +29°C° 0 mm 2 m/s 673 mmHg 22%
    13:00 +30°C° 0 mm 2 m/s 673 mmHg 20%
    14:00 +30°C° 0 mm 2 m/s 673 mmHg 21%
    15:00 +29°C° 0 mm 2 m/s 672 mmHg 21%
    16:00 +29°C° 0 mm 2 m/s 672 mmHg 21%
    17:00 +26°C° 0 mm 2 m/s 672 mmHg 27%
    18:00 +23°C° 0 mm 2 m/s 671 mmHg 32%
    19:00 +21°C° 0 mm 1 m/s 671 mmHg 37%
    20:00 +20°C° 0 mm 1 m/s 671 mmHg 38%
    21:00 +19°C° 0 mm 1 m/s 671 mmHg 38%
    22:00 +19°C° 0 mm 1 m/s 671 mmHg 39%
    23:00 +18°C° 0 mm 1 m/s 671 mmHg 39%
    Voir plus